Volver al catálogo

STARLINK-2720

ActivoComunicacionesVLEO
NORAD 48653·PAYLOAD·🇺🇸 United States

Lanzado May 26, 2021 desde Cape Canaveral Space Force Station

Loading…

Próximos Pases (próximas 24 horas)

TLE

ActualizadoSource: CelesTrak SupGP

Época: Sep 14, 2026, 20:31 UTC

1 48653C 21044R   26257.85534722 -.00027750  00000+0 -89225-3 0  2573
2 48653  53.1603 313.5413 0000981  74.4324 137.0519 15.31720952    10

Sigue STARLINK-2720 en tiempo real con AllMySat

Download on the App Store